Погода в Ведучи

Россия / Чеченская Республика     42°41′11″N   45°34′12″E
темп.,
°C
ветер,
м/с
пор.,
м/с
влажн.,
%
обл.,
%
осадки,
мм/ч
давл.,
гПа
погр.,
м
8 мая, сб
сб800:00+5ююз22875 0.0 102019
03:00+4ююз22845 0.0 102021
06:00+7ююз23790 0.0 101865
09:00+14ю024548 0.0 10151105
12:00+17ю1437100 0.0 10131704
15:00+17юв134394 0.0 10131482
18:00+12ю236992 0.0 1014183
21:00+8ююз44660 0.0 101563
9 мая, вс
вс900:00+8ююз445784 0.0 101465
03:00+7ююз455957 0.0 101287
06:00+10ююз3561100 0.0 1010117
09:00+16ююз3442100 0.0 1007874
12:00+19ю153916 0.0 10051934
15:00+15ссв3265100 0.5 1007909
18:00+8с2398100 10.6 1011291
21:00+3с3398100 17.3 1018314
10 мая, пн
пн1000:00+1с2299100 1.6 1020218
03:00−1с2399100 6.3 1022231
06:00−2с1298100 7.3 1023206
09:00−1св1195100 13.8 1023393
12:00+1ссв329097 0.8 1021882
15:00+1ссв329993 3.1 1020283
18:000ссв119869 1.3 1021157
21:00−4ююз219526 1.4 102529
11 мая, вт
вт1100:00−5ююз229012 0.0 102429
03:00−4ююз228937 0.0 102342
06:00−2ююз128642 0.0 102170
09:00+4ссв219125 0.0 1017390
12:00+4св229352 0.1 1016364
15:00+6св2287100 0.1 1016423
18:00+3св119763 0.0 1018127
21:00+1ююз22929 0.0 102128
12 мая, ср
ср1200:00+1ююз22870 0.0 101928
03:00+2ююз33860 0.0 101738
06:00+5ююз23860 0.0 101649
09:00+11вюв13755 0.0 1013363
12:00+14в146629 0.0 1013938
15:00+14всв135819 0.1 10141117
18:00+11св118226 0.1 1015124
21:00+7ююз34780 0.1 101752